• In Deutschland
  • Länderverzeichnis
  • Für 7 Tage
  • Wassertemperatur
  • Satellitenkarten
  • Wetterkarte
  • Widgets
  • user-avatar
    Anmelden

    Stündliche Wetter La Rioja

    Heute, 21 Juli, Freitag

    Zeit Temperatur Niederschläge Wind Luftdruck Luftfeuchtigkeit
    00:00 +12°C° 0 mm 1 m/S 717 mmHg 29%
    01:00 +12°C° 0 mm 1 m/S 717 mmHg 30%
    02:00 +11°C° 0 mm 1 m/S 717 mmHg 31%
    03:00 +11°C° 0 mm 1 m/S 717 mmHg 32%
    04:00 +10°C° 0 mm 1 m/S 717 mmHg 34%
    05:00 +10°C° 0 mm 1 m/S 717 mmHg 36%
    06:00 +10°C° 0 mm 1 m/S 717 mmHg 34%
    07:00 +11°C° 0 mm 1 m/S 718 mmHg 32%
    08:00 +11°C° 0 mm 1 m/S 718 mmHg 30%
    09:00 +14°C° 0 mm 1 m/S 719 mmHg 26%
    10:00 +18°C° 0 mm 1 m/S 719 mmHg 21%
    11:00 +21°C° 0 mm 1 m/S 720 mmHg 16%
    12:00 +21°C° 0 mm 2 m/S 719 mmHg 16%
    13:00 +23°C° 0 mm 2 m/S 718 mmHg 15%
    14:00 +24°C° 0 mm 2 m/S 717 mmHg 14%
    15:00 +23°C° 0 mm 2 m/S 717 mmHg 15%
    16:00 +23°C° 0 mm 2 m/S 716 mmHg 16%
    17:00 +23°C° 0 mm 2 m/S 716 mmHg 17%
    18:00 +20°C° 0 mm 2 m/S 716 mmHg 20%
    19:00 +17°C° 0 mm 2 m/S 716 mmHg 24%
    20:00 +15°C° 0 mm 1 m/S 715 mmHg 28%
    21:00 +15°C° 0 mm 1 m/S 715 mmHg 29%
    22:00 +14°C° 0 mm 1 m/S 715 mmHg 30%
    23:00 +13°C° 0 mm 1 m/S 715 mmHg 31%

    Morgen, 22 Juli, Samstag

    Zeit Temperatur Niederschläge Wind Luftdruck Luftfeuchtigkeit
    00:00 +13°C° 0 mm 1 m/S 714 mmHg 32%
    01:00 +13°C° 0 mm 1 m/S 714 mmHg 33%
    02:00 +12°C° 0 mm 1 m/S 713 mmHg 33%
    03:00 +12°C° 0 mm 2 m/S 713 mmHg 34%
    04:00 +12°C° 0 mm 2 m/S 712 mmHg 36%
    05:00 +10°C° 0 mm 2 m/S 712 mmHg 37%
    06:00 +12°C° 0 mm 2 m/S 712 mmHg 36%
    07:00 +12°C° 0 mm 2 m/S 712 mmHg 36%
    08:00 +12°C° 0 mm 2 m/S 712 mmHg 36%
    09:00 +15°C° 0 mm 2 m/S 712 mmHg 31%
    10:00 +17°C° 0 mm 2 m/S 712 mmHg 27%
    11:00 +20°C° 0 mm 2 m/S 712 mmHg 22%
    12:00 +21°C° 0 mm 2 m/S 711 mmHg 21%
    13:00 +23°C° 0 mm 2 m/S 710 mmHg 19%
    14:00 +25°C° 0 mm 2 m/S 709 mmHg 18%
    15:00 +25°C° 0 mm 2 m/S 708 mmHg 19%
    16:00 +24°C° 0 mm 2 m/S 708 mmHg 19%
    17:00 +24°C° 0 mm 2 m/S 707 mmHg 20%
    18:00 +22°C° 0 mm 1 m/S 708 mmHg 23%
    19:00 +20°C° 0 mm 1 m/S 708 mmHg 27%
    20:00 +18°C° 0 mm 1 m/S 708 mmHg 30%
    21:00 +17°C° 0 mm 2 m/S 708 mmHg 31%
    22:00 +17°C° 0 mm 2 m/S 708 mmHg 32%
    23:00 +16°C° 0 mm 2 m/S 708 mmHg 32%

    übermorgen, 23 Juli, Sonntag

    Zeit Temperatur Niederschläge Wind Luftdruck Luftfeuchtigkeit
    00:00 +16°C° 0 mm 2 m/S 708 mmHg 35%
    01:00 +15°C° 0 mm 2 m/S 708 mmHg 38%
    02:00 +15°C° 0 mm 2 m/S 708 mmHg 41%
    03:00 +15°C° 0 mm 2 m/S 708 mmHg 44%
    04:00 +14°C° 0 mm 2 m/S 708 mmHg 47%
    05:00 +14°C° 0 mm 2 m/S 708 mmHg 51%
    06:00 +14°C° 0 mm 2 m/S 708 mmHg 50%
    07:00 +14°C° 0 mm 2 m/S 709 mmHg 49%
    08:00 +15°C° 0 mm 2 m/S 709 mmHg 48%
    09:00 +18°C° 0 mm 2 m/S 709 mmHg 42%
    10:00 +20°C° 0 mm 2 m/S 710 mmHg 36%
    11:00 +24°C° 0 mm 2 m/S 710 mmHg 30%
    12:00 +25°C° 0 mm 2 m/S 710 mmHg 28%
    13:00 +26°C° 0 mm 2 m/S 709 mmHg 26%
    14:00 +27°C° 0 mm 3 m/S 708 mmHg 24%
    15:00 +27°C° 0 mm 3 m/S 708 mmHg 26%
    16:00 +26°C° 0 mm 2 m/S 708 mmHg 27%
    17:00 +26°C° 0 mm 2 m/S 708 mmHg 28%
    18:00 +24°C° 0 mm 2 m/S 709 mmHg 34%
    19:00 +21°C° 0 mm 2 m/S 710 mmHg 40%
    20:00 +19°C° 0 mm 1 m/S 710 mmHg 47%
    21:00 +18°C° 0 mm 2 m/S 711 mmHg 46%
    22:00 +18°C° 0 mm 2 m/S 712 mmHg 46%
    23:00 +17°C° 0 mm 3 m/S 712 mmHg 46%

    24 Juli, Montag

    Zeit Temperatur Niederschläge Wind Luftdruck Luftfeuchtigkeit
    00:00 +17°C° 0 mm 3 m/S 712 mmHg 47%
    01:00 +16°C° 0 mm 3 m/S 713 mmHg 49%
    02:00 +16°C° 0 mm 3 m/S 713 mmHg 50%
    03:00 +14°C° 0 mm 3 m/S 713 mmHg 52%
    04:00 +14°C° 0 mm 3 m/S 713 mmHg 54%
    05:00 +13°C° 0 mm 3 m/S 713 mmHg 56%
    06:00 +13°C° 0 mm 3 m/S 713 mmHg 55%
    07:00 +13°C° 0 mm 3 m/S 714 mmHg 54%
    08:00 +13°C° 0 mm 3 m/S 715 mmHg 53%
    09:00 +16°C° 0 mm 3 m/S 715 mmHg 48%
    10:00 +18°C° 0 mm 3 m/S 715 mmHg 43%
    11:00 +20°C° 0 mm 3 m/S 715 mmHg 38%
    12:00 +21°C° 0 mm 3 m/S 714 mmHg 37%
    13:00 +22°C° 0 mm 3 m/S 713 mmHg 36%
    14:00 +22°C° 0 mm 3 m/S 713 mmHg 35%
    15:00 +22°C° 0 mm 3 m/S 713 mmHg 37%
    16:00 +22°C° 0 mm 3 m/S 713 mmHg 38%
    17:00 +22°C° 0 mm 3 m/S 713 mmHg 39%
    18:00 +20°C° 0 mm 2 m/S 713 mmHg 45%
    19:00 +18°C° 0 mm 2 m/S 714 mmHg 50%
    20:00 +16°C° 0 mm 2 m/S 715 mmHg 56%
    21:00 +16°C° 0 mm 2 m/S 715 mmHg 57%
    22:00 +15°C° 0 mm 2 m/S 715 mmHg 58%
    23:00 +15°C° 0 mm 2 m/S 716 mmHg 59%

    25 Juli, Dienstag

    Zeit Temperatur Niederschläge Wind Luftdruck Luftfeuchtigkeit
    00:00 +15°C° 0 mm 2 m/S 716 mmHg 61%
    01:00 +14°C° 0 mm 2 m/S 716 mmHg 63%
    02:00 +14°C° 0 mm 2 m/S 716 mmHg 65%
    03:00 +14°C° 0 mm 2 m/S 715 mmHg 66%
    04:00 +12°C° 0 mm 3 m/S 715 mmHg 67%
    05:00 +12°C° 0 mm 3 m/S 715 mmHg 68%
    06:00 +12°C° 0 mm 3 m/S 716 mmHg 67%
    07:00 +12°C° 0 mm 3 m/S 716 mmHg 67%
    08:00 +13°C° 0 mm 3 m/S 717 mmHg 66%
    09:00 +14°C° 0 mm 3 m/S 717 mmHg 62%
    10:00 +16°C° 0 mm 3 m/S 717 mmHg 57%
    11:00 +18°C° 0 mm 3 m/S 717 mmHg 53%
    12:00 +19°C° 0 mm 3 m/S 716 mmHg 51%
    13:00 +20°C° 0 mm 3 m/S 715 mmHg 49%
    14:00 +20°C° 0 mm 3 m/S 715 mmHg 48%
    15:00 +20°C° 0 mm 3 m/S 715 mmHg 49%
    16:00 +20°C° 0 mm 3 m/S 715 mmHg 50%
    17:00 +20°C° 0 mm 2 m/S 715 mmHg 52%
    18:00 +19°C° 0 mm 2 m/S 716 mmHg 57%
    19:00 +17°C° 0 mm 2 m/S 716 mmHg 63%
    20:00 +16°C° 0 mm 1 m/S 717 mmHg 68%
    21:00 +15°C° 0 mm 1 m/S 717 mmHg 69%
    22:00 +15°C° 0 mm 1 m/S 717 mmHg 70%
    23:00 +14°C° 0 mm 1 m/S 718 mmHg 72%

    26 Juli, Mittwoch

    Zeit Temperatur Niederschläge Wind Luftdruck Luftfeuchtigkeit
    00:00 +14°C° 0 mm 1 m/S 717 mmHg 73%
    01:00 +14°C° 0 mm 1 m/S 717 mmHg 74%
    02:00 +13°C° 0 mm 2 m/S 717 mmHg 75%
    03:00 +13°C° 0 mm 2 m/S 717 mmHg 75%
    04:00 +13°C° 0 mm 2 m/S 717 mmHg 75%
    05:00 +13°C° 0 mm 2 m/S 716 mmHg 76%
    06:00 +13°C° 0 mm 2 m/S 717 mmHg 74%
    07:00 +13°C° 0 mm 1 m/S 717 mmHg 73%
    08:00 +13°C° 0 mm 1 m/S 717 mmHg 72%
    09:00 +15°C° 0 mm 2 m/S 717 mmHg 64%
    10:00 +18°C° 0 mm 2 m/S 717 mmHg 57%
    11:00 +20°C° 0 mm 2 m/S 716 mmHg 50%
    12:00 +21°C° 0 mm 2 m/S 715 mmHg 48%
    13:00 +21°C° 0 mm 3 m/S 714 mmHg 47%
    14:00 +22°C° 0 mm 3 m/S 713 mmHg 45%
    15:00 +22°C° 0 mm 3 m/S 713 mmHg 46%
    16:00 +23°C° 0 mm 2 m/S 713 mmHg 47%
    17:00 +23°C° 0 mm 2 m/S 712 mmHg 48%
    18:00 +21°C° 0 mm 2 m/S 712 mmHg 54%
    19:00 +20°C° 0 mm 2 m/S 713 mmHg 60%
    20:00 +19°C° 0 mm 1 m/S 713 mmHg 66%
    21:00 +18°C° 0 mm 2 m/S 713 mmHg 69%
    22:00 +17°C° 0 mm 2 m/S 712 mmHg 71%
    23:00 +17°C° 0 mm 2 m/S 712 mmHg 74%
    Mehr zeigen